Theta_e
309 309 309 309 309 309 308 309 309 309 309 308 309 309 309 309 309 309 309 309 309 309 309 309 309 309 309 310 310 310 311 310 313 318 321 319 318 317 315 314 314 313 313 314 316 316 315 316 316 316 317 319 320 323 322 321 322 323 324 323 322 321 321 320 319 319 318 317 316 317 317 316 317 318 317 317 317 317 317 317 317 317 318 317 318 318 319 319
309 309 309 309 309 309 309 309 309 309 309 309 309 310 310 310 310 310 310 310 310 310 310 310 310 310 310 310 310 311 311 311 316 320 322 320 320 317 314 314 315 313 313 315 317 316 316 316 317 316 317 320 321 322 323 322 322 322 324 323 321 322 321 320 318 318 319 318 317 316 317 317 316 317 317 317 316 316 316 316 317 316 317 318 317 318 319 319
309 310 310 310 309 309 309 310 310 310 310 310 310 310 310 310 310 310 310 310 310 310 310 311 310 310 311 310 312 311 311 318 322 323 322 320 318 316 314 315 315 314 314 315 317 316 316 316 316 317 317 318 321 322 322 323 322 322 323 322 320 320 320 319 318 318 318 318 318 317 317 316 315 316 316 317 317 317 317 316 316 316 317 318 317 318 319 319
310 310 310 310 310 310 310 310 310 310 310 310 310 310 311 310 311 311 310 311 311 311 311 311 311 311 311 310 312 309 317 326 324 319 317 315 315 314 315 315 315 314 314 316 316 316 316 316 315 317 317 317 319 320 321 322 322 321 321 320 320 319 318 317 316 316 318 318 318 317 317 316 315 316 317 317 317 317 317 316 316 316 316 317 317 316 316 318
310 310 311 311 311 311 311 311 312 311 311 311 311 311 311 311 311 311 311 312 312 312 312 312 312 312 311 311 310 312 321 323 317 317 315 314 315 314 314 314 315 314 315 316 316 316 316 315 315 316 317 316 318 318 319 319 320 320 319 319 319 319 318 316 317 318 319 318 318 318 317 316 315 316 317 317 317 316 316 316 316 316 316 316 316 316 315 318
312 311 311 312 312 313 312 313 313 312 312 312 312 312 312 312 313 313 313 313 313 313 313 313 313 313 313 312 311 316 321 316 315 320 316 314 316 314 315 314 315 314 315 316 315 316 315 315 315 316 316 316 317 316 316 318 319 320 319 318 318 318 317 315 316 318 319 318 317 318 317 316 315 315 316 316 317 316 316 317 317 317 317 316 316 317 317 318
313 313 313 313 313 313 313 314 313 313 313 313 313 314 313 313 313 313 314 314 314 314 314 314 313 313 314 313 315 320 320 314 317 321 317 316 316 314 315 314 315 314 315 316 315 316 315 315 315 315 316 315 316 315 315 317 317 318 319 319 318 317 316 315 316 318 319 318 317 318 317 317 316 315 315 316 316 316 316 316 317 317 316 317 317 317 318 317
314 314 314 314 314 314 314 314 314 313 313 313 313 313 312 313 313 313 313 312 313 312 313 312 312 313 313 315 320 321 318 317 318 319 319 317 315 314 315 314 315 314 315 315 315 316 316 315 315 315 316 315 315 315 316 316 316 317 317 318 318 317 317 317 317 317 317 317 317 318 318 316 316 315 315 315 315 315 316 315 316 316 316 317 317 317 318 318
315 314 314 314 315 314 313 313 313 312 312 311 311 311 311 311 311 311 310 310 310 310 310 310 309 311 311 316 321 319 318 320 318 317 317 315 314 314 314 315 314 314 315 315 315 316 316 316 316 316 315 315 316 316 315 316 316 316 316 316 316 316 316 316 316 315 315 315 316 318 317 316 316 316 315 315 315 316 315 316 316 316 316 316 317 317 317 317
315 314 314 315 315 314 313 313 312 311 311 311 312 312 312 312 311 311 310 310 310 309 309 308 308 309 312 318 320 319 320 321 317 316 315 313 314 314 315 316 315 315 316 316 316 316 316 316 316 317 316 315 315 315 316 315 315 316 315 315 314 314 314 314 314 314 314 314 314 316 317 316 316 316 315 315 315 316 316 316 316 317 317 316 316 316 317 317
315 315 315 316 316 316 315 315 314 313 313 315 315 315 315 315 314 314 314 313 311 311 309 308 308 308 314 320 319 319 320 318 316 315 314 314 314 315 315 317 317 316 316 316 316 316 316 316 317 317 315 315 314 315 315 314 315 315 314 314 314 314 314 314 314 314 314 314 315 315 315 315 315 315 315 314 315 315 315 316 316 317 317 317 316 316 317 318
316 316 317 318 318 318 318 318 316 315 317 318 318 318 318 318 318 317 316 314 313 312 310 309 308 308 316 319 316 319 318 317 316 313 315 316 316 317 316 317 317 316 316 317 317 317 318 317 316 316 315 315 315 315 314 313 314 314 313 313 313 313 314 314 314 314 314 315 316 315 315 315 315 315 315 315 315 315 315 316 316 317 317 317 316 316 317 316
317 318 319 320 319 320 319 318 318 318 319 319 319 320 319 319 319 317 316 314 313 312 310 311 308 310 318 318 314 317 318 318 317 315 316 316 317 317 316 317 316 316 316 316 316 317 317 316 316 315 315 315 314 315 313 313 313 314 313 313 314 314 315 315 316 316 315 315 316 315 315 316 315 316 316 317 317 316 316 316 316 316 316 316 316 315 316 316
318 319 321 321 320 320 319 318 319 319 320 320 320 320 320 320 317 315 315 314 314 313 312 311 308 313 319 316 314 316 316 317 317 316 316 315 317 317 316 316 316 315 315 315 315 315 314 314 315 315 315 315 315 315 314 313 314 314 314 314 315 315 315 317 317 318 316 314 314 314 314 315 315 316 317 318 317 316 316 316 316 315 315 315 316 316 316 316
319 321 322 322 321 320 318 318 320 321 320 320 321 320 320 318 315 315 315 314 314 311 311 309 310 318 319 313 315 314 314 316 315 317 317 316 317 317 316 316 316 315 314 314 314 313 313 314 314 314 314 314 314 314 314 314 314 314 315 315 317 317 316 318 319 318 316 314 313 314 315 315 315 316 318 318 317 316 316 315 315 315 315 315 316 316 317 316
320 321 321 321 321 320 319 320 321 321 321 321 321 321 320 317 315 316 315 313 312 311 314 315 313 317 318 313 316 315 314 316 315 318 317 316 317 316 315 315 314 314 313 313 313 313 313 313 314 314 314 314 314 314 315 316 316 316 316 316 318 318 317 318 319 318 316 314 313 314 315 315 316 317 317 316 316 315 315 315 315 315 315 315 316 316 317 318
321 320 320 320 320 320 320 321 321 321 321 321 321 321 318 316 315 315 312 311 310 311 317 320 314 313 314 313 315 315 316 316 316 317 315 314 316 315 314 314 313 313 313 312 312 313 312 313 314 314 314 314 314 315 318 318 318 318 319 318 319 319 317 318 319 319 317 315 314 314 314 315 315 315 315 315 315 315 314 315 314 315 315 315 316 317 317 318
320 320 319 320 320 321 321 321 321 321 321 321 320 320 316 315 315 314 314 312 311 313 316 315 314 316 317 315 315 315 316 316 315 315 313 313 314 315 314 313 313 313 312 312 312 312 313 313 314 315 315 314 313 315 318 320 319 319 319 319 318 319 318 318 318 319 318 317 316 316 314 314 315 315 315 315 316 316 315 315 315 315 315 315 316 317 319 320
321 321 320 321 321 321 321 321 321 321 321 321 320 320 317 317 317 315 317 317 316 319 320 316 316 320 320 319 318 315 314 314 313 313 313 312 313 314 314 313 313 313 312 314 314 312 313 315 316 317 317 315 314 315 316 318 317 318 319 318 318 317 317 318 318 318 318 318 318 318 317 316 317 317 316 316 316 316 316 315 315 315 315 316 317 319 321 321
322 322 322 322 322 321 321 321 321 321 321 321 321 322 321 322 323 320 318 318 317 320 322 320 319 320 321 322 320 315 314 314 313 314 313 312 313 313 313 313 314 314 314 317 316 313 314 316 318 318 317 316 316 316 316 317 317 317 318 318 318 318 317 317 318 318 318 318 318 319 319 317 317 317 316 316 315 315 316 315 315 315 315 317 319 321 321 320
322 322 322 323 323 322 322 321 322 321 321 321 321 323 322 321 324 323 318 319 320 321 322 323 322 323 323 323 320 316 316 316 314 314 313 312 312 313 313 313 315 315 315 317 318 315 315 317 319 317 316 316 316 317 317 318 318 318 318 318 318 318 318 317 317 317 317 318 317 318 318 317 316 316 315 315 315 315 315 315 316 315 316 320 322 321 320 318
322 323 323 323 323 323 323 323 322 321 322 322 322 322 319 316 316 316 315 319 320 320 321 321 322 322 322 323 319 316 318 318 316 315 313 312 313 314 315 314 315 317 316 317 318 319 318 318 317 316 317 317 317 317 318 318 319 319 318 319 319 319 318 317 318 318 317 318 317 318 317 316 316 316 316 315 315 316 315 316 316 316 318 321 321 319 317 316
323 323 323 323 323 323 324 323 322 322 322 321 322 320 317 315 313 311 313 317 318 318 319 320 321 321 322 321 317 315 317 318 319 317 312 312 313 314 316 315 315 317 318 318 318 321 321 319 317 317 317 317 317 317 318 318 319 320 319 319 319 319 319 319 318 319 318 317 317 318 317 317 316 316 316 316 317 316 317 318 317 320 321 320 317 316 314 313
323 323 323 323 323 324 323 323 323 323 321 320 320 319 316 314 312 311 313 317 319 319 319 318 319 319 318 316 314 316 317 318 320 316 312 313 313 314 316 316 316 317 318 317 318 320 321 320 319 318 318 318 318 318 319 319 319 321 321 320 320 319 320 319 319 318 317 318 319 319 319 319 318 318 318 319 319 317 318 318 319 322 321 316 315 314 312 311
322 323 324 324 324 324 322 323 324 323 322 320 320 319 318 315 312 312 314 319 320 320 319 318 319 317 314 313 314 314 316 317 317 314 312 313 314 315 316 317 317 318 319 319 319 319 319 318 319 319 319 319 320 319 319 321 320 320 322 323 321 320 321 321 321 321 320 320 319 320 321 321 320 320 320 319 319 319 319 318 317 318 316 315 315 314 311 310
324 324 325 324 325 323 323 324 323 323 324 322 320 320 319 317 313 312 315 320 322 323 322 318 318 316 312 312 313 314 317 316 312 311 313 313 313 313 315 317 317 318 318 318 320 320 318 318 320 322 320 321 323 320 319 320 320 319 323 326 324 321 323 323 322 323 322 320 318 318 321 321 319 319 319 319 319 319 317 316 314 313 313 313 312 311 309 308
324 325 325 324 324 324 324 324 323 324 324 321 321 321 320 318 314 313 318 325 327 325 321 316 316 315 312 311 311 314 319 315 310 310 311 311 311 312 315 317 317 317 315 316 321 322 318 319 322 322 319 321 323 320 319 320 320 322 323 324 323 320 321 322 321 322 321 319 318 318 319 320 320 319 318 318 320 319 315 313 313 312 312 311 309 308 307 307
324 324 324 324 324 323 323 324 324 324 324 321 321 321 320 318 314 314 321 328 329 322 317 313 311 311 311 310 310 312 313 311 312 312 309 310 311 311 315 316 316 316 314 317 322 321 318 320 322 321 320 322 320 319 322 321 321 323 321 319 319 318 318 318 319 319 319 318 320 321 321 323 324 321 318 319 320 318 314 312 313 312 311 310 307 307 306 305
322 322 322 322 323 323 323 323 323 324 323 322 322 322 321 317 315 316 321 326 325 319 316 312 310 311 311 310 311 311 309 309 312 311 309 310 311 310 313 313 313 315 314 316 319 319 317 317 317 319 321 320 318 320 325 324 321 321 319 318 318 319 319 318 319 318 318 319 321 323 322 323 326 322 318 320 319 317 314 312 312 310 309 308 306 306 304 304
320 320 320 321 321 322 322 322 322 323 322 322 322 322 320 318 318 321 325 325 322 319 315 312 312 313 312 312 313 312 310 310 310 310 310 311 311 310 310 310 310 313 315 316 317 318 315 312 313 317 318 317 318 321 323 324 321 318 318 319 319 321 321 319 319 318 319 323 323 323 321 321 327 326 319 318 318 315 313 311 311 309 307 306 305 304 303 302
317 317 318 319 321 321 321 322 322 322 322 322 322 321 321 322 321 325 328 323 319 321 317 314 315 313 313 315 316 313 311 311 310 311 312 311 311 311 311 312 312 314 317 318 318 318 317 314 315 318 316 315 319 320 318 319 318 316 316 317 319 323 320 319 320 318 321 326 325 323 322 321 325 325 318 316 315 314 313 311 310 307 306 305 304 303 302 301
315 315 316 318 319 319 321 321 320 321 322 321 321 321 323 325 323 325 325 320 320 324 320 319 317 315 315 317 318 316 314 314 311 311 313 314 314 313 314 316 317 320 322 322 322 323 322 319 317 317 316 315 318 319 317 317 316 315 316 315 320 324 322 321 323 323 325 327 322 322 323 322 324 323 317 315 313 312 312 310 308 306 305 304 303 302 302 301
312 313 314 316 318 318 320 320 320 321 321 320 322 322 322 323 324 325 324 321 324 325 321 319 317 315 316 317 319 319 319 317 313 312 315 316 317 317 317 317 318 323 324 323 324 324 325 323 319 319 318 316 317 318 320 322 317 315 318 320 322 323 322 321 322 323 324 323 320 320 321 323 324 320 316 312 309 309 308 307 307 305 304 303 302 302 301 301
309 310 311 313 315 316 318 319 319 320 320 320 323 323 321 322 323 323 323 323 323 323 320 318 317 317 317 318 320 320 320 320 315 313 316 317 319 321 320 318 318 321 321 321 323 323 325 324 321 322 320 317 316 318 321 323 318 315 318 324 324 322 322 321 321 321 322 322 321 319 321 324 324 318 312 309 308 307 306 305 305 304 303 303 302 302 301 300
306 307 308 309 311 313 315 317 319 320 319 320 323 323 321 322 321 321 322 321 319 320 320 319 319 320 320 320 319 319 321 321 317 316 319 318 319 322 321 319 318 319 320 322 323 321 323 323 321 319 318 316 316 318 319 320 320 319 319 323 324 323 322 321 322 322 322 323 321 320 324 323 319 315 310 308 307 305 305 305 304 304 303 303 302 301 301 300
304 305 306 306 307 309 312 315 318 319 320 321 322 322 321 320 321 321 321 319 318 319 320 320 322 322 322 321 320 319 320 319 318 319 320 320 320 320 320 319 319 319 320 322 322 322 322 323 321 318 317 316 315 317 318 318 320 320 322 324 321 320 320 321 323 321 321 323 321 319 322 319 317 317 310 307 307 305 305 305 304 303 303 302 302 302 301 301
302 303 305 306 306 307 308 312 316 318 319 321 321 320 319 318 318 319 319 318 317 318 320 322 322 322 322 321 321 321 320 320 320 320 321 321 321 320 319 319 318 318 317 319 321 323 323 322 321 320 320 317 313 315 317 316 318 320 321 321 317 318 321 319 320 321 321 322 320 318 320 317 318 319 312 308 308 306 305 305 305 304 304 303 302 302 301 300
301 302 304 305 305 306 307 309 314 318 320 321 320 319 318 318 317 317 318 318 316 318 320 320 320 319 319 319 318 318 321 321 321 321 321 321 321 321 320 318 316 314 313 315 317 320 321 320 320 320 320 317 312 315 318 316 317 318 318 316 316 319 322 319 319 321 321 321 320 319 320 318 318 319 316 311 308 306 306 305 305 305 304 303 302 301 300 300
300 303 305 305 304 306 307 308 314 318 320 320 319 318 317 317 316 317 318 317 317 318 319 319 318 318 318 318 318 318 320 321 321 321 321 321 321 320 318 318 316 314 313 315 318 320 320 321 321 319 319 318 315 317 320 318 316 315 314 314 314 316 318 319 319 320 321 320 320 320 319 320 319 319 317 313 308 307 307 306 305 304 304 303 302 302 301 300
302 305 307 307 306 308 309 310 315 319 319 318 317 316 316 316 317 317 316 317 318 318 318 319 319 318 318 318 318 317 319 321 321 321 321 321 320 319 318 320 320 316 314 316 319 321 321 322 322 319 319 321 320 319 319 318 318 316 313 313 315 316 316 317 317 319 320 320 320 320 320 321 318 314 312 311 309 309 309 308 307 305 304 303 302 302 301 300
302 305 309 308 308 310 311 312 316 317 317 316 315 315 315 315 317 318 317 317 318 318 318 318 319 319 319 319 318 317 318 321 321 321 321 320 319 320 318 318 320 319 316 318 320 320 319 320 321 320 319 320 319 318 317 318 319 319 316 314 315 316 317 317 317 318 319 318 319 319 319 319 314 310 309 310 309 309 309 308 307 305 304 303 302 301 300 299
302 305 309 309 308 310 312 312 313 315 316 316 315 316 315 315 317 318 318 317 318 318 317 317 319 319 319 319 319 319 319 321 321 320 321 320 319 319 316 314 316 317 317 318 319 318 318 319 319 318 317 316 316 315 316 317 317 317 318 318 317 317 317 318 318 318 318 318 317 317 318 318 314 309 309 309 308 308 308 307 306 304 303 302 301 300 299 298
303 306 309 309 309 311 311 311 312 314 315 314 314 316 316 316 317 317 318 318 318 318 318 318 318 317 318 318 318 318 319 320 320 319 319 320 317 314 312 312 314 315 316 318 318 317 317 317 317 317 316 315 315 315 315 316 317 318 318 318 318 317 316 316 316 315 315 316 317 318 318 318 314 311 310 309 308 308 307 306 305 304 302 301 300 299 298 297
304 306 308 308 309 311 311 310 311 313 313 312 314 315 314 315 316 316 316 317 317 316 316 317 316 316 317 316 316 317 317 317 318 317 317 319 315 309 309 312 313 313 314 315 316 316 316 315 316 316 315 315 314 313 314 316 317 317 316 315 315 315 315 315 315 314 314 316 316 317 317 316 313 311 310 309 308 306 304 303 303 303 302 300 299 298 297 297
303 304 306 306 307 309 311 310 310 312 312 312 313 313 313 314 314 315 315 315 315 314 314 315 315 315 315 315 315 316 316 316 317 316 316 317 314 310 309 311 312 311 310 311 314 314 314 314 315 314 314 313 312 312 313 315 314 313 313 314 313 313 314 314 315 315 315 315 314 314 314 313 311 309 307 307 307 307 305 302 302 302 301 299 299 298 297 297
302 302 305 306 307 309 310 309 309 311 313 313 313 313 313 313 313 314 315 314 314 313 314 315 315 314 315 316 315 315 315 315 316 316 316 316 315 311 308 309 310 310 309 310 311 312 311 312 313 313 313 312 312 312 312 312 311 310 312 313 312 312 313 312 312 312 313 312 312 311 311 310 309 307 306 307 308 309 307 303 301 300 299 299 299 298 297 297
300 302 306 308 308 309 310 309 310 311 312 313 313 312 313 313 312 314 315 314 313 313 313 314 314 314 314 314 314 314 314 314 315 315 314 314 314 311 308 308 308 308 308 309 309 310 309 310 310 311 311 311 311 311 310 310 310 309 309 310 310 310 311 310 310 310 310 311 310 309 309 308 307 306 306 307 307 307 306 302 300 298 298 299 298 298 298 297
299 301 304 306 307 309 310 310 310 310 311 312 312 312 313 313 312 312 314 314 313 314 313 313 313 313 313 313 314 313 313 313 313 313 313 313 312 310 308 308 307 307 308 308 307 308 308 308 308 307 307 308 308 308 308 308 307 307 307 307 307 307 307 307 307 307 308 309 308 307 307 307 306 306 306 306 305 304 301 300 299 298 297 297 297 296 296 296
300 300 300 302 305 306 308 309 309 310 310 311 312 311 312 312 312 311 312 313 312 313 313 312 312 312 313 312 313 313 313 312 312 313 313 311 309 308 308 308 306 305 305 306 306 307 307 306 306 306 306 307 307 306 306 306 306 305 305 305 305 305 306 305 305 306 306 306 306 306 306 305 305 305 304 303 302 301 299 298 297 297 296 296 295 294 294 294
299 299 299 301 303 303 303 306 308 309 309 310 311 311 310 311 311 310 311 312 311 312 312 312 312 311 310 310 311 311 311 310 310 311 309 307 307 307 307 307 305 304 304 305 306 307 307 305 305 306 306 306 305 305 305 305 305 304 304 303 303 303 304 304 304 304 304 303 303 304 304 304 303 303 302 300 299 298 297 296 295 295 295 294 293 293 293 293
297 297 298 299 302 302 302 303 307 308 308 308 309 309 308 309 309 309 309 310 310 310 311 311 310 309 307 308 308 308 308 308 307 306 305 304 304 304 305 305 305 305 305 305 306 307 306 304 304 305 305 303 303 304 303 301 301 301 301 300 300 300 301 301 302 302 302 302 302 302 303 303 302 301 300 298 296 295 294 294 293 294 294 293 293 293 293 293
296 296 296 298 300 303 302 302 305 307 307 307 307 307 307 308 308 309 309 308 306 306 307 308 308 307 307 307 307 305 304 304 303 301 301 301 301 301 301 302 302 303 303 304 304 305 304 304 304 304 304 303 303 302 300 299 300 300 300 299 299 299 300 300 300 301 301 301 301 301 302 301 301 300 299 296 294 293 293 292 292 293 293 293 293 293 293 293
Wind_Speed
2 2 2 2 3 3 3 3 3 4 4 4 4 4 5 5 5 5 6 6 6 7 8 8 9 9 10 10 11 13 15 16 16 11 9 12 10 7 8 8 7 4 6 6 7 6 5 7 7 6 5 3 3 2 3 2 2 1 1 3 4 4 5 4 5 5 4 5 5 3 3 5 5 2 1 1 3 6 9 8 8 9 9 13 19 16 11 12
1 1 1 2 2 3 3 3 3 4 4 5 5 6 6 6 7 7 7 8 8 8 9 9 10 10 11 11 12 13 16 18 16 12 14 15 12 9 8 5 5 4 7 8 9 8 6 5 7 8 4 2 3 3 3 2 3 3 2 3 4 4 5 6 7 6 5 5 7 7 6 6 6 5 2 2 6 6 9 9 7 9 9 13 18 17 15 14
1 1 2 2 2 2 2 2 3 3 4 5 6 6 7 8 8 8 9 9 9 10 10 10 11 11 11 11 12 12 15 15 11 7 7 5 5 4 2 2 4 4 6 7 8 9 8 5 3 6 3 2 3 3 2 2 3 4 3 3 5 5 6 7 7 7 6 6 7 6 6 7 7 6 3 5 7 6 9 10 8 9 8 9 8 9 14 16
2 2 2 2 2 2 2 3 3 4 5 5 6 7 7 8 9 9 9 10 10 10 10 10 10 11 11 10 10 11 12 9 4 0 4 6 6 3 1 1 3 3 7 6 5 8 9 8 5 4 3 3 4 3 3 3 2 3 4 4 5 5 7 7 9 9 7 5 4 5 7 9 8 4 2 4 7 7 9 9 10 10 8 9 9 6 6 11
3 2 2 3 3 3 3 4 4 5 5 6 7 8 8 9 10 10 10 11 11 11 11 11 10 10 10 9 8 8 8 3 1 2 7 6 3 1 1 1 2 4 9 5 5 6 7 7 5 3 3 3 4 3 4 6 4 3 4 7 7 6 8 8 9 7 4 4 3 5 8 9 7 4 3 5 7 7 7 10 12 11 10 11 10 10 9 6
3 3 3 4 4 5 5 5 5 6 6 7 8 9 9 10 11 11 12 12 12 12 11 11 10 10 9 8 6 4 3 2 1 2 6 3 3 3 3 1 1 7 9 4 6 6 5 6 5 3 3 4 5 5 6 6 6 5 5 7 7 7 9 9 9 4 3 2 5 6 8 8 8 8 7 8 10 10 11 12 13 12 12 13 11 10 10 9
4 5 4 5 5 6 5 5 6 6 7 8 9 10 10 11 12 12 13 13 13 13 12 12 11 10 9 6 3 1 2 6 10 9 8 8 7 5 4 2 3 10 9 6 8 6 5 5 5 4 4 5 6 7 7 6 5 6 6 6 8 10 11 10 9 5 1 4 7 6 7 9 11 10 8 10 11 12 14 14 13 13 13 13 11 10 10 10
4 5 5 6 6 6 6 7 7 8 9 9 10 11 12 12 13 13 13 14 14 14 13 12 10 9 7 3 1 3 4 7 11 9 8 9 8 6 5 3 6 11 9 10 10 6 5 5 6 4 5 6 6 7 6 6 5 7 7 6 8 8 9 8 8 8 6 7 6 5 8 11 11 10 11 13 13 14 15 15 13 12 12 11 10 11 10 9
3 4 5 5 6 6 7 7 8 8 9 10 11 11 12 13 13 13 14 14 14 15 14 12 10 8 5 1 1 4 4 6 9 7 6 8 7 5 5 4 8 11 9 11 11 9 5 3 5 2 3 5 6 7 7 6 4 4 5 6 8 7 8 9 9 11 10 8 6 6 10 13 10 8 11 13 13 13 14 14 13 10 10 9 9 10 9 9
3 4 4 5 5 6 6 7 7 8 9 9 10 11 12 12 13 13 14 14 15 15 14 12 9 6 3 2 3 5 3 4 5 5 6 6 4 4 5 4 7 10 8 10 11 10 5 4 5 3 3 5 5 6 6 6 4 3 6 8 10 10 10 10 12 14 12 9 9 8 11 13 7 4 8 10 10 10 9 9 8 8 8 8 8 8 8 9
3 4 4 5 5 6 6 7 7 8 8 9 10 11 12 12 13 13 14 14 14 14 13 10 7 4 2 2 4 5 2 3 4 3 4 4 2 3 6 5 6 10 9 9 10 9 7 7 6 3 1 2 3 6 6 4 4 5 7 8 11 11 12 12 13 15 11 8 10 10 10 12 7 5 11 14 13 11 9 9 8 7 8 8 9 9 8 8
3 4 6 6 6 6 6 7 7 8 8 9 10 11 12 13 13 14 14 13 13 13 11 8 5 4 3 4 7 8 6 5 5 5 5 3 2 4 7 9 7 9 8 8 6 4 5 5 5 2 3 3 4 6 4 3 5 4 4 7 12 11 12 14 13 14 12 6 7 6 4 9 7 8 14 15 12 10 8 8 8 7 8 8 9 9 7 7
3 5 6 7 6 6 6 6 7 8 9 10 11 12 13 14 14 13 12 11 11 10 8 5 4 6 3 3 7 13 14 12 10 9 8 6 5 6 8 10 9 8 7 5 3 3 2 3 3 4 5 5 5 3 1 1 2 4 4 6 10 8 8 11 10 10 8 3 9 7 1 5 7 9 11 8 3 3 5 6 8 8 8 8 9 9 8 8
4 6 7 7 6 5 5 6 7 8 10 11 12 13 14 14 13 11 11 10 9 8 5 2 6 7 3 4 6 9 12 12 10 9 8 5 3 3 6 9 9 9 7 4 3 2 2 3 2 3 5 6 5 4 4 4 3 6 6 5 5 4 5 8 7 4 3 1 6 7 2 5 7 10 10 5 2 5 7 9 11 10 9 9 9 8 8 7
5 7 7 6 5 4 5 6 7 8 10 12 13 13 14 12 10 9 9 8 7 4 1 4 8 6 2 5 5 5 7 7 5 5 5 4 5 3 4 6 6 6 6 4 3 2 2 1 1 2 4 4 4 5 6 4 3 5 5 4 4 4 5 8 7 6 6 3 4 6 2 6 8 9 8 6 6 8 10 12 13 12 12 11 9 7 7 7
5 7 6 5 5 5 6 6 8 9 10 12 13 14 14 10 8 8 7 6 3 2 5 4 8 5 3 3 3 2 3 4 5 8 6 6 6 4 7 7 4 4 4 3 3 2 1 1 1 1 3 2 3 4 4 4 4 4 5 5 5 5 5 5 4 4 8 3 4 6 4 5 5 6 8 9 11 10 10 14 15 14 13 10 8 6 6 6
5 6 6 7 7 7 7 7 8 9 10 12 13 14 12 8 6 6 4 2 2 5 4 1 4 4 3 2 2 2 3 4 7 8 6 6 7 6 9 6 4 6 4 2 2 3 3 2 1 1 1 3 4 3 3 4 4 4 4 5 6 6 5 4 3 1 7 6 5 8 7 7 7 7 10 12 11 11 11 14 14 13 11 9 7 6 6 4
4 5 6 8 8 8 8 9 9 9 10 11 12 13 9 6 5 3 2 3 3 3 2 2 2 3 2 2 3 1 4 5 7 6 4 7 9 8 8 5 5 7 5 3 3 4 3 2 3 1 2 4 4 3 4 5 5 5 5 5 6 7 7 6 6 3 2 4 5 7 9 9 9 8 10 11 11 11 14 13 12 12 11 9 7 5 4 5
3 4 6 7 8 8 9 10 10 10 10 10 12 12 7 5 4 1 1 2 0 1 2 0 3 3 3 5 4 2 4 5 5 4 5 8 8 8 7 5 5 6 4 2 4 6 4 2 3 2 4 6 6 7 8 9 9 9 9 7 7 8 7 8 8 7 8 9 8 8 9 8 8 8 9 13 13 12 13 12 11 10 11 10 6 4 4 9
3 3 5 6 8 8 9 10 10 10 10 11 13 10 4 2 2 1 1 4 5 7 7 5 6 7 9 10 2 5 3 4 4 3 7 9 9 8 6 4 4 4 4 3 4 5 5 3 4 5 6 8 9 10 11 11 10 10 9 8 8 7 7 8 9 8 7 8 7 8 9 8 8 9 12 15 14 11 11 11 12 10 9 6 4 5 8 10
5 5 5 6 8 8 8 10 10 9 9 11 13 7 1 3 2 1 2 6 9 12 12 11 13 12 14 14 4 6 2 3 5 5 8 9 9 7 5 5 4 3 5 6 3 2 4 4 5 7 10 11 12 11 11 11 10 9 8 7 7 6 8 9 10 11 7 5 5 6 8 9 8 12 16 14 11 11 10 10 12 12 6 2 6 8 10 9
7 7 7 7 7 7 8 9 10 9 9 9 10 5 3 4 2 0 2 5 7 12 13 14 17 14 17 18 8 6 2 3 5 5 8 9 7 5 4 6 6 4 6 7 3 1 3 5 7 10 11 11 11 10 10 12 10 8 6 6 6 5 8 8 9 10 4 0 4 6 7 8 10 15 18 14 10 11 10 10 12 11 3 7 8 8 10 9
9 9 9 9 7 7 8 9 8 8 9 9 9 6 3 2 2 1 1 4 6 11 12 11 14 11 12 11 2 2 3 4 5 4 11 10 5 4 3 5 6 5 5 6 6 4 3 5 10 13 12 11 11 10 10 10 8 5 4 5 5 5 6 5 5 6 5 3 7 9 7 6 10 15 15 13 11 8 9 12 9 2 8 11 10 10 10 10
10 11 12 10 8 7 8 9 6 5 6 7 8 6 3 2 1 1 1 4 5 7 5 2 3 3 3 1 4 1 3 4 4 2 12 11 5 3 4 4 6 5 5 7 8 9 7 6 7 8 9 10 9 8 9 7 5 4 5 6 6 7 7 6 5 7 7 6 6 6 6 5 7 9 8 8 6 6 9 9 1 8 11 12 12 12 11 12
13 12 13 10 8 8 8 7 3 3 3 4 5 6 5 4 0 1 1 3 4 3 1 2 2 2 2 2 2 1 2 3 3 2 10 8 2 3 4 4 5 5 7 9 10 9 8 7 7 7 7 7 6 7 7 4 3 5 5 5 5 5 6 5 7 7 5 5 3 3 3 3 3 4 8 7 4 6 7 1 8 11 10 10 11 10 11 12
15 13 12 10 8 7 6 4 2 1 3 2 2 6 6 6 2 1 1 2 3 1 1 1 0 0 1 1 1 0 2 2 1 2 4 2 2 1 2 3 3 4 4 5 5 4 3 1 1 3 5 4 5 6 6 3 2 4 3 3 3 3 5 5 6 4 1 3 3 1 1 5 3 5 11 10 8 8 1 9 12 11 9 9 9 9 10 10
15 13 12 10 8 6 3 1 0 3 2 2 2 6 6 6 3 0 1 2 4 1 2 1 1 1 2 2 1 1 1 2 1 1 1 1 1 0 2 2 2 2 1 0 2 1 3 3 3 3 1 2 4 6 5 4 3 3 2 4 4 4 4 4 3 3 4 4 5 4 5 5 4 7 12 11 11 6 8 13 10 10 10 11 11 12 11 10
11 10 10 9 8 6 5 2 2 3 1 1 3 6 8 7 4 2 1 3 3 1 2 0 1 1 1 1 2 1 1 2 1 0 2 1 1 2 1 4 3 3 1 3 2 1 1 5 4 4 4 3 5 5 4 5 4 2 0 2 3 2 2 3 4 5 4 4 4 5 6 3 4 6 8 8 7 4 11 10 9 10 10 11 12 11 11 11
7 7 7 6 6 7 8 6 2 1 1 2 5 7 8 7 3 1 1 2 2 1 1 1 2 2 1 1 3 2 2 1 0 0 1 1 2 1 1 3 4 5 2 4 5 3 1 1 2 4 5 4 5 3 1 2 3 3 2 0 1 3 4 4 4 3 3 3 4 5 7 3 5 4 4 4 1 7 9 7 8 9 10 11 10 10 10 9
6 5 5 4 4 5 6 6 5 6 5 4 6 8 7 3 1 1 3 2 1 1 2 1 1 3 4 3 3 4 3 1 2 3 2 1 2 0 1 1 1 3 3 3 6 7 2 2 2 3 5 3 3 1 3 3 4 2 1 1 3 5 4 3 3 1 2 3 5 8 11 6 3 3 3 1 2 8 9 7 8 8 10 10 8 7 8 8
5 4 4 5 5 4 3 2 4 6 6 6 5 5 4 1 0 3 4 1 1 0 2 2 2 3 4 3 1 3 3 2 4 4 2 1 2 1 2 0 1 1 2 3 6 7 3 1 1 2 3 2 5 2 2 2 2 2 1 1 3 3 1 1 1 1 1 4 6 3 9 10 3 4 3 4 7 8 9 8 9 9 9 8 7 6 6 7
5 4 5 6 7 6 4 2 1 1 5 4 3 2 2 0 3 5 3 1 1 2 1 1 1 2 2 1 1 3 2 3 5 4 3 4 4 3 4 3 2 1 2 2 2 2 3 6 5 2 1 2 4 1 1 2 1 3 3 2 1 2 1 1 1 1 3 5 4 4 2 5 5 5 3 5 8 8 8 8 9 10 8 7 7 6 5 6
6 5 5 7 8 8 8 6 1 1 4 3 0 1 1 2 4 3 4 2 1 1 2 2 1 0 0 0 1 2 1 2 5 5 4 4 3 4 6 7 5 3 3 1 2 2 2 3 5 4 2 2 6 3 1 1 3 5 4 4 3 1 2 3 3 2 3 4 3 4 4 1 4 5 1 7 8 8 10 9 9 9 8 8 7 6 6 6
7 7 7 9 10 10 11 9 4 3 5 4 2 1 2 6 3 1 2 4 2 1 3 2 0 1 1 2 1 2 1 2 4 4 2 2 2 3 5 7 8 5 2 2 2 2 3 4 2 4 1 4 8 4 1 2 4 6 4 4 4 3 2 4 3 4 4 3 3 2 1 1 2 2 4 9 9 9 10 9 9 8 7 7 6 6 6 6
7 8 8 10 12 13 13 11 8 6 6 3 1 3 6 7 2 1 4 5 4 3 1 2 2 1 3 4 4 3 3 2 2 3 2 3 3 3 3 4 7 6 2 2 2 2 4 4 1 0 2 3 4 2 3 3 1 3 0 3 2 3 3 3 5 5 5 4 4 2 3 3 2 4 7 8 8 9 9 8 9 7 6 6 5 6 5 5
6 6 8 11 14 15 14 13 10 9 6 3 2 6 8 6 3 3 3 3 5 4 2 2 2 2 4 3 5 6 3 1 1 2 2 4 4 5 5 2 2 8 6 2 2 1 1 2 1 0 2 2 1 3 4 2 1 1 2 1 3 1 2 2 6 5 4 6 6 5 5 4 3 3 7 8 8 8 7 7 8 7 6 6 5 5 4 4
5 4 6 10 14 15 15 14 13 11 5 3 5 8 5 5 7 6 2 1 1 2 2 4 2 3 4 2 4 4 3 1 2 3 1 3 3 5 6 1 3 2 2 1 1 0 1 2 1 2 2 1 1 2 3 2 2 2 1 2 2 2 2 1 3 3 4 7 6 7 9 6 4 2 3 7 7 7 6 6 7 6 6 5 4 4 4 4
3 3 6 12 17 16 14 16 15 10 4 4 9 10 5 5 8 7 4 1 2 3 4 6 3 2 4 4 4 1 4 2 3 4 1 2 2 2 1 0 5 5 4 4 1 1 2 1 2 1 1 0 0 2 2 2 4 4 2 1 2 0 2 1 2 2 5 7 5 6 9 7 5 5 3 6 7 7 6 6 6 6 5 5 4 4 4 3
2 1 4 8 13 16 17 18 15 8 5 7 10 9 6 7 8 6 4 2 2 3 5 6 4 4 5 4 5 2 4 4 3 3 1 2 3 3 5 2 3 5 6 5 1 1 2 1 2 0 1 2 2 1 1 1 3 3 1 3 2 2 3 3 2 1 3 6 5 6 7 6 4 3 1 6 8 8 7 6 5 5 4 4 4 4 3 3
2 1 2 2 10 17 19 17 12 7 7 9 9 7 4 4 6 6 4 2 1 1 3 6 5 5 7 6 6 5 3 4 3 2 1 1 2 1 4 3 2 2 5 5 2 0 2 0 2 1 1 2 0 2 3 2 1 3 1 1 0 1 1 1 1 2 2 4 5 6 7 5 2 4 5 7 7 6 7 6 5 4 5 4 4 4 4 4
2 1 1 6 14 19 18 12 8 7 7 7 8 8 6 3 3 2 1 1 2 0 1 3 5 5 5 5 5 4 2 2 2 3 3 2 3 1 2 2 2 1 1 3 2 0 0 1 1 1 3 2 3 3 2 3 2 3 3 4 4 3 2 3 5 4 3 4 4 6 8 4 2 4 6 7 5 5 6 6 5 5 5 5 4 4 3 3
3 1 2 10 18 20 14 8 6 5 5 7 5 4 5 3 2 3 2 1 3 2 1 2 4 5 5 5 4 2 1 1 2 3 3 3 3 2 1 2 2 2 2 1 1 1 2 2 1 3 5 7 8 7 5 7 7 5 4 3 3 2 2 4 7 4 2 4 4 5 7 2 2 4 4 6 5 5 5 5 5 4 4 5 4 3 3 2
3 1 4 12 19 17 9 5 6 5 6 6 3 4 4 3 2 3 3 2 2 2 1 2 4 5 6 6 5 5 4 3 4 5 4 4 2 1 1 2 1 2 1 1 1 1 3 2 2 4 5 6 9 7 3 3 4 3 1 2 2 0 2 3 5 3 2 4 5 5 6 2 1 3 2 5 5 4 3 3 4 4 4 4 4 4 3 1
2 0 3 9 17 13 7 6 6 7 8 6 5 7 7 5 5 5 5 5 4 3 3 4 4 5 5 5 5 6 5 4 5 6 4 3 1 3 4 3 2 1 1 1 1 1 0 1 1 1 3 4 5 5 2 4 3 2 0 0 1 2 4 4 3 2 2 5 7 6 4 1 1 3 1 2 3 4 3 1 3 5 4 4 4 4 3 1
1 0 2 4 10 9 4 3 3 5 8 8 9 10 8 7 7 7 7 6 5 5 4 3 2 1 3 4 4 4 4 3 3 2 1 1 1 3 4 6 5 2 2 2 1 1 0 1 1 1 4 6 5 4 1 1 2 1 2 3 3 4 6 4 3 3 5 5 4 3 4 3 4 9 11 8 5 0 4 4 3 4 4 4 4 3 2 1
1 2 1 2 5 5 3 2 2 3 4 7 8 9 10 9 6 6 7 7 7 7 5 2 0 1 2 3 3 4 5 4 3 2 1 1 1 1 2 4 6 4 3 2 2 2 1 1 2 4 6 6 7 7 5 4 4 4 5 6 7 7 6 4 3 6 6 5 5 5 8 9 10 12 13 9 8 5 3 5 4 3 3 3 3 2 1 1
1 2 3 3 3 4 4 4 4 3 3 3 3 5 9 10 7 5 6 5 5 5 5 4 4 4 4 4 4 5 6 6 6 5 5 4 2 2 2 3 4 3 3 1 0 2 2 2 4 6 8 8 8 8 8 7 6 5 5 7 9 8 7 6 8 7 5 5 7 8 10 12 11 10 11 10 9 6 1 4 3 2 2 3 2 2 2 3
2 1 1 1 2 5 6 6 5 5 5 4 2 2 5 8 8 5 4 4 1 2 3 4 6 8 8 6 4 4 4 4 4 4 4 3 2 3 2 2 3 3 3 1 1 2 2 3 5 5 6 8 7 6 5 5 4 4 6 9 10 11 12 12 11 9 6 7 9 9 11 13 11 11 14 11 5 0 3 4 2 2 2 2 2 1 1 3
2 2 2 2 1 3 3 3 5 7 7 5 3 3 4 5 6 4 2 3 1 1 3 4 4 4 3 2 3 2 2 2 1 1 1 2 2 2 1 0 1 2 2 1 1 1 1 2 2 1 3 5 7 6 5 4 5 7 9 10 11 14 15 13 12 12 10 11 11 12 14 16 14 14 12 4 3 4 3 3 3 3 3 3 4 4 4 4
1 1 1 1 0 0 2 1 5 7 7 6 6 7 5 5 7 4 1 2 3 3 4 5 3 3 4 3 4 3 3 3 3 1 3 3 1 1 1 1 0 1 1 1 1 2 1 1 1 2 1 4 6 6 3 3 5 7 8 12 14 15 13 12 12 11 11 12 13 14 16 15 11 7 2 3 5 4 4 4 3 3 5 5 4 4 4 4
2 2 1 2 1 2 1 0 3 5 6 7 8 8 6 7 9 6 2 0 1 1 2 3 4 4 3 3 4 2 2 5 5 2 4 3 0 1 1 1 1 2 1 1 0 1 1 1 1 1 1 5 8 6 1 1 3 6 11 17 18 14 11 12 11 10 10 12 13 13 12 8 2 3 5 4 5 5 4 4 4 4 3 3 2 4 5 5
2 1 2 1 2 2 3 2 3 5 5 6 8 8 8 7 7 6 3 1 3 2 2 4 5 3 2 3 3 2 4 6 5 3 4 3 1 1 1 1 1 2 3 2 1 1 2 2 1 1 2 5 7 3 4 3 3 8 11 13 14 12 11 11 10 10 12 11 9 8 5 3 1 2 4 4 5 5 4 4 4 4 4 3 4 5 6 5
Wind_Direction
358 351 348 348 344 345 354 0 358 351 346 344 346 344 341 340 338 338 337 334 335 334 332 330 330 332 333 333 331 328 323 319 317 298 259 265 268 274 284 273 282 266 200 175 159 184 186 202 209 189 191 159 192 217 136 163 182 190 217 221 246 247 257 320 330 327 340 331 331 320 329 327 324 337 93 15 254 250 265 260 256 251 239 236 241 240 210 196
321 324 322 321 322 326 336 344 344 340 336 334 335 336 334 333 333 331 331 330 331 331 330 329 328 328 331 332 331 329 322 317 309 281 266 273 267 262 271 271 279 236 189 181 182 203 207 211 195 179 199 186 178 159 138 165 164 201 235 236 246 251 273 310 310 313 329 315 316 318 326 331 327 328 358 281 278 281 282 277 272 268 260 249 240 222 194 192
303 315 301 300 309 310 315 319 321 321 319 322 324 325 326 326 327 326 327 326 327 328 327 327 326 327 330 332 333 333 326 318 305 276 272 271 229 224 249 280 288 238 192 189 198 219 239 280 231 182 212 238 196 158 157 164 157 206 215 238 246 256 281 297 305 310 308 310 316 317 336 325 303 307 293 271 283 278 273 276 277 273 267 275 270 216 190 193
279 287 291 299 305 304 310 315 315 316 313 316 316 316 317 317 318 319 320 319 321 322 322 323 324 326 329 333 335 338 331 311 298 0 114 121 133 128 109 27 317 225 182 190 230 241 253 290 282 220 232 256 240 199 191 180 161 201 195 230 254 280 296 299 305 308 314 338 355 331 322 304 295 298 261 279 285 264 259 265 266 274 285 300 318 307 230 197
288 287 302 309 316 325 332 336 330 321 317 318 316 315 315 315 315 315 315 315 316 316 318 318 320 323 326 333 333 339 338 308 19 116 143 130 119 84 0 10 330 196 175 195 254 250 251 262 258 247 241 257 266 242 220 201 189 233 234 246 258 276 283 281 291 312 358 1 340 307 294 291 304 302 255 251 261 256 259 265 269 281 294 296 301 304 295 246
305 309 319 322 332 342 347 347 335 325 322 319 316 316 316 314 313 313 313 311 311 313 314 315 318 322 325 333 337 344 330 270 315 201 187 218 280 299 304 309 272 185 173 213 240 228 240 242 233 235 237 243 256 253 249 225 204 231 244 254 265 273 277 282 293 315 71 333 294 282 284 295 300 287 269 254 254 259 261 263 270 275 275 280 285 284 281 269
312 319 325 331 341 347 347 344 335 329 324 320 318 318 315 313 312 311 311 309 310 310 310 312 314 318 323 334 342 326 231 257 280 265 237 256 272 285 275 254 218 186 180 220 226 217 224 231 232 237 251 252 254 254 263 267 253 254 252 264 276 279 280 283 292 293 238 275 277 275 287 286 280 281 278 264 260 265 267 266 267 271 271 272 274 271 267 264
309 320 328 337 342 345 344 341 336 329 324 322 320 317 315 313 312 310 309 308 307 306 305 308 309 314 325 342 318 274 232 251 270 262 245 258 271 275 257 229 201 187 190 218 219 223 227 238 250 254 264 260 269 278 296 310 282 264 266 272 272 269 282 292 300 296 284 273 265 265 274 267 267 280 279 271 266 263 266 269 268 269 273 270 264 264 265 262
304 317 330 339 340 342 342 339 334 327 324 322 319 316 314 312 311 310 308 307 305 303 303 304 304 304 307 321 292 281 251 247 256 248 252 269 277 259 236 219 199 188 201 224 228 241 236 241 257 278 308 286 292 299 309 303 266 263 287 302 300 296 302 303 298 288 278 268 248 244 263 264 270 284 276 265 260 257 253 258 262 262 263 263 262 257 256 258
303 316 333 342 342 341 341 337 330 327 325 322 320 319 317 315 314 311 309 307 304 302 302 302 300 289 273 221 240 264 248 238 248 249 267 279 281 228 200 206 207 195 214 233 232 245 252 267 282 15 4 304 298 294 287 276 279 342 329 314 305 299 294 282 273 269 263 258 243 236 256 265 272 287 277 265 258 258 255 255 258 259 261 263 269 263 255 254
318 331 339 342 343 342 340 335 330 329 327 327 325 323 321 319 317 314 311 308 304 304 302 301 292 262 222 208 236 252 221 216 233 241 278 296 290 202 183 190 210 206 221 242 236 251 280 302 333 18 337 332 322 288 282 298 338 3 343 313 293 286 281 269 263 261 254 244 225 220 252 272 278 250 254 263 266 267 268 270 263 256 265 268 269 268 263 256
333 340 339 339 338 337 336 334 332 333 334 331 327 326 324 321 319 316 313 309 307 304 302 299 269 206 198 239 238 239 234 229 238 256 284 297 247 208 191 189 198 208 229 254 252 272 299 336 16 329 271 330 322 294 287 344 352 343 336 301 285 282 275 266 259 252 248 224 173 171 258 275 267 241 247 257 261 265 270 272 269 254 256 262 263 265 263 261
341 338 333 330 329 331 333 333 336 336 335 331 330 330 325 324 323 320 319 316 314 309 305 293 217 174 182 257 235 234 240 242 249 266 276 269 244 222 209 205 198 204 226 259 310 7 344 357 1 281 284 292 289 308 257 263 309 276 256 265 282 293 277 268 262 240 237 197 127 126 216 255 261 263 268 273 263 303 309 287 277 265 261 268 270 272 270 271
342 333 328 324 325 328 329 333 339 337 334 331 330 329 326 326 324 324 325 320 321 319 310 227 173 155 176 263 251 237 237 243 252 262 260 242 204 202 215 218 211 212 223 245 306 329 347 11 357 289 283 264 269 313 296 269 265 266 263 248 262 284 271 275 273 179 164 290 128 133 219 248 270 277 281 299 28 354 322 291 279 274 271 270 267 269 269 270
343 334 331 329 331 335 336 342 343 337 334 332 330 327 326 325 322 327 326 323 330 334 32 145 163 157 267 264 250 243 230 241 238 218 230 192 164 182 183 193 206 214 224 236 257 284 347 34 91 276 267 242 249 281 288 281 260 254 263 258 229 237 262 278 272 171 155 265 169 143 215 243 250 270 287 315 331 323 305 286 281 278 274 272 274 275 273 276
345 338 353 10 15 13 -0 356 350 341 337 334 329 326 325 321 322 329 327 330 342 105 107 134 172 177 301 260 197 217 208 216 188 184 201 179 178 176 138 147 172 186 208 229 240 257 250 180 157 306 271 250 230 244 272 282 267 238 233 255 243 242 262 272 279 169 139 132 204 190 224 247 244 278 299 303 299 295 284 277 277 275 274 275 276 277 275 283
343 346 29 40 36 29 17 7 357 346 341 337 329 325 323 315 319 336 347 18 95 119 92 64 178 190 264 252 242 246 165 176 183 192 209 187 179 161 141 144 162 164 166 171 190 194 168 161 145 100 223 242 247 251 278 264 252 248 234 248 252 261 285 288 306 82 131 142 211 220 227 243 248 266 278 276 275 274 269 268 271 275 280 281 280 288 289 311
339 353 31 37 31 24 17 8 359 350 346 342 332 327 319 300 301 335 13 43 84 112 51 25 178 214 221 220 258 219 132 161 176 185 202 182 170 162 165 163 149 155 160 168 182 172 162 171 177 201 225 225 237 228 235 239 242 266 269 277 285 286 297 293 293 309 240 225 239 241 238 247 256 259 270 275 272 269 269 272 276 282 287 289 293 299 314 43
311 337 6 17 16 9 10 7 2 356 352 350 342 332 318 293 282 262 230 267 352 254 318 127 190 248 303 291 270 148 118 142 162 180 180 167 162 170 184 177 156 172 174 165 188 179 164 167 172 205 233 221 223 215 222 239 247 262 270 276 284 282 285 286 281 286 292 282 273 269 267 272 281 282 283 281 273 266 271 280 282 281 283 290 306 321 41 62
271 305 327 346 354 355 1 3 4 1 357 2 356 335 319 331 290 213 205 239 249 268 289 280 241 260 288 297 293 136 150 173 184 180 166 160 156 166 185 183 171 198 210 180 180 174 159 175 194 203 223 230 235 234 240 249 253 263 271 269 273 277 281 284 283 285 294 290 281 284 288 291 296 290 277 271 273 274 272 277 277 272 274 292 350 45 65 68
262 279 298 317 335 347 354 358 6 7 7 13 3 342 11 26 325 351 338 267 255 260 271 270 262 262 268 275 234 155 164 224 207 157 158 169 159 164 180 183 181 199 222 207 166 126 168 197 216 214 227 239 245 254 264 270 274 279 282 280 281 280 278 281 285 286 289 288 284 290 293 296 297 285 275 272 279 276 266 266 270 270 277 28 62 64 67 70
250 261 282 295 313 341 355 359 2 8 23 30 18 21 70 31 333 53 309 280 273 265 265 260 256 254 253 258 238 167 165 232 219 155 156 173 170 189 179 172 196 199 210 207 160 91 205 225 235 228 235 246 251 260 267 271 274 274 281 287 283 277 282 282 276 282 297 353 294 299 295 294 289 278 278 279 272 265 260 248 255 270 334 62 66 66 70 70
244 256 270 278 302 334 350 -0 6 18 33 43 40 42 54 350 318 65 236 271 279 255 250 249 248 251 248 246 159 143 225 229 244 183 164 168 169 220 210 185 218 226 215 206 190 198 210 220 230 229 234 248 255 259 259 264 264 252 255 273 273 272 280 276 277 308 345 328 297 299 295 287 279 274 277 277 261 257 255 243 253 323 74 75 65 64 66 65
252 262 267 274 305 325 341 1 21 36 36 58 54 38 27 344 301 96 231 263 270 246 238 252 260 284 279 291 68 0 249 223 273 188 167 176 164 189 227 220 227 239 235 222 212 223 235 242 250 238 228 239 253 260 260 260 265 258 242 247 259 266 267 271 307 337 335 312 303 309 302 269 260 265 280 285 259 243 248 247 317 69 89 88 77 73 69 64
254 264 267 272 295 311 332 358 48 61 38 85 54 17 17 8 336 130 324 262 255 254 289 47 48 45 25 24 68 259 258 230 304 96 167 193 188 168 215 223 223 239 239 238 233 236 248 254 261 249 230 241 251 255 260 261 284 279 258 257 271 285 291 304 334 347 337 306 303 18 346 265 272 291 287 294 260 239 256 292 74 77 79 78 81 79 73 68
249 254 259 259 272 292 322 357 121 29 15 107 26 356 3 5 4 176 329 276 260 260 106 108 92 147 132 111 141 180 277 234 3 61 161 239 316 200 240 205 196 249 249 255 257 253 253 236 293 250 235 253 257 258 264 261 278 270 265 308 332 354 340 337 345 343 294 263 258 69 322 259 291 286 268 267 244 241 333 64 74 76 71 66 66 61 61 61
243 245 246 246 252 262 291 11 348 318 349 130 350 347 354 5 16 328 287 271 265 145 114 278 282 168 144 145 195 191 185 170 106 33 62 350 278 157 283 212 175 245 236 0 327 287 213 181 81 58 216 232 237 254 245 191 209 246 270 343 14 29 349 331 330 278 249 276 271 229 225 256 276 254 251 247 237 228 77 74 73 74 75 70 63 57 54 49
235 237 239 241 238 230 228 255 339 347 39 83 340 340 351 -0 7 354 303 281 287 120 138 231 121 157 126 144 228 252 143 157 159 104 53 338 225 117 241 244 264 285 203 155 208 303 189 182 163 149 178 210 221 241 230 174 187 221 223 12 32 36 303 283 271 260 270 305 284 211 191 233 272 250 238 236 228 121 89 85 81 76 74 71 68 64 58 50
224 228 232 233 224 218 226 241 263 287 303 343 328 330 347 356 3 21 249 270 313 40 130 124 124 154 137 155 219 222 173 175 223 118 136 205 205 118 224 239 294 304 259 190 214 260 0 158 184 166 181 213 218 243 339 128 171 198 196 24 337 255 252 252 249 267 295 292 257 209 177 187 280 256 206 238 253 103 102 92 84 77 68 63 60 61 64 60
212 215 214 202 193 203 221 243 252 254 271 295 310 327 344 356 3 243 230 233 319 23 111 139 122 143 172 197 201 196 192 168 104 130 182 183 145 242 260 151 332 304 271 243 249 252 231 51 345 213 212 205 144 93 31 93 143 171 189 322 300 263 238 228 225 250 331 273 253 219 189 180 299 272 201 281 69 123 126 117 103 84 70 67 54 50 56 61
192 190 182 171 168 171 176 244 268 252 251 267 300 332 344 5 180 235 232 228 338 242 121 132 124 149 196 221 168 184 200 168 141 153 190 129 128 214 270 267 37 322 291 276 264 251 209 165 240 219 223 168 116 102 2 58 106 127 136 34 329 293 216 146 136 101 160 258 283 251 185 186 218 258 234 43 58 106 123 127 116 94 80 79 71 62 55 56
192 189 181 182 183 180 180 182 18 239 219 244 297 345 14 289 229 226 221 47 40 205 154 101 150 178 202 204 154 176 177 171 169 186 203 169 166 196 203 201 161 136 259 242 258 256 205 206 197 148 310 169 132 128 4 18 88 136 158 157 318 317 304 250 210 183 212 234 277 21 92 197 223 261 280 53 51 68 92 106 109 105 103 97 88 83 71 63
213 207 199 205 202 196 201 200 118 115 176 162 24 43 68 233 233 207 196 214 257 148 82 51 34 277 180 180 186 152 106 180 168 195 224 175 183 215 201 207 207 205 233 260 325 312 274 236 175 141 345 190 165 162 183 237 172 165 174 167 177 277 297 272 255 249 253 244 270 11 22 272 236 269 349 94 83 68 78 82 88 100 105 100 95 86 74 65
236 226 216 218 216 213 213 210 199 160 152 132 84 98 194 229 234 78 213 237 261 148 105 79 62 269 239 240 238 135 169 229 159 165 213 156 185 237 209 213 217 212 219 263 276 231 244 286 170 155 262 185 180 194 177 131 160 192 203 155 164 196 234 260 269 262 267 275 295 341 20 238 219 207 109 108 105 91 91 94 93 95 95 94 93 84 76 68
257 251 243 236 230 223 217 213 200 163 148 135 126 193 218 228 213 186 234 248 264 248 134 102 126 215 254 253 264 231 180 208 173 133 188 201 208 226 211 221 211 191 171 223 232 190 222 264 50 115 287 167 176 303 13 61 119 223 325 75 166 200 203 251 268 261 277 294 285 254 221 253 240 147 123 110 105 100 102 107 106 105 103 101 95 90 87 84
274 271 259 245 238 230 219 213 196 169 160 146 189 222 228 226 208 212 227 231 250 256 234 199 163 207 256 248 251 244 184 167 199 131 212 224 233 241 230 267 196 178 172 188 225 54 212 251 54 32 340 65 130 329 0 16 324 17 53 115 236 235 147 242 271 275 287 281 266 254 252 266 260 162 117 104 101 100 104 109 111 114 112 104 97 98 101 99
284 275 254 240 237 230 219 211 191 172 168 166 210 228 223 215 225 234 258 350 288 284 262 246 183 183 247 242 235 223 141 85 194 171 236 219 230 253 225 253 28 154 161 78 206 118 129 245 230 134 45 44 211 310 341 342 70 90 171 229 269 353 52 190 261 272 258 256 255 254 261 269 260 234 118 112 111 109 118 118 117 120 110 103 102 108 111 109
279 274 258 246 235 223 212 204 186 169 162 197 227 238 226 218 224 224 237 248 239 236 237 242 217 206 253 263 274 245 122 131 196 169 191 224 227 0 52 28 25 24 13 39 87 10 44 257 268 103 109 164 238 356 336 347 62 118 201 334 52 291 289 244 222 233 243 252 254 242 253 260 240 225 174 149 142 134 137 126 115 113 105 109 121 124 129 127
170 234 274 251 224 208 199 189 175 165 188 208 227 236 224 232 235 234 253 255 235 226 228 240 237 241 258 257 283 297 147 176 210 180 152 231 239 29 40 8 27 20 3 33 105 344 37 194 246 242 83 54 30 53 175 295 29 95 81 1 64 169 226 221 192 192 242 254 258 243 246 251 248 264 124 140 142 138 137 122 105 104 104 114 127 130 141 143
168 218 300 171 177 185 181 172 168 183 203 212 227 229 218 238 236 235 251 231 202 175 221 241 240 240 258 259 265 270 206 197 220 225 226 215 234 31 41 7 36 45 9 35 83 353 35 195 226 240 354 20 19 185 183 213 162 104 71 315 204 166 248 261 230 172 202 249 258 255 251 246 301 6 59 102 114 118 123 122 124 133 132 130 133 138 148 150
189 245 249 141 156 167 162 159 183 197 206 225 236 232 230 244 233 209 140 194 225 108 111 247 252 249 262 262 257 260 240 222 212 236 252 216 223 259 35 348 346 111 46 46 75 30 48 215 246 307 293 259 235 233 258 275 234 163 185 206 210 214 220 270 258 211 190 226 232 251 260 254 7 19 64 85 81 85 101 118 135 142 133 128 127 127 130 131
206 220 145 143 158 164 158 169 202 194 214 229 231 238 234 236 229 192 139 148 222 217 146 239 249 252 253 252 260 264 255 249 206 230 256 216 226 248 170 246 306 62 75 80 113 63 77 111 219 266 260 260 268 267 266 274 263 229 201 193 208 229 205 242 257 257 246 234 222 246 255 240 28 2 54 80 84 94 110 133 141 143 132 128 130 121 115 106
213 192 127 150 166 173 174 197 203 203 227 230 238 263 250 234 233 209 184 168 188 206 203 214 230 237 238 239 248 243 233 225 209 223 241 225 229 27 100 223 264 73 68 198 188 65 56 95 209 250 259 269 278 276 284 301 271 232 195 81 99 260 275 257 259 284 286 247 240 251 248 219 286 305 76 105 115 113 118 134 139 153 149 139 146 139 134 154
224 195 109 166 182 190 199 206 200 210 223 224 229 239 240 240 236 229 218 200 191 201 208 215 228 233 234 238 245 240 235 234 222 221 233 232 191 51 31 352 2 64 17 330 228 228 302 216 168 265 289 292 288 285 325 17 30 78 66 353 151 233 287 298 272 261 243 227 229 245 258 232 236 271 269 139 147 138 131 142 165 169 162 154 158 149 151 180
204 163 68 177 202 213 222 224 223 221 218 219 227 231 235 240 230 228 235 225 212 219 223 229 237 247 256 253 254 249 239 248 253 225 180 180 88 52 17 6 18 65 73 22 347 42 201 227 133 193 254 264 271 272 263 37 23 20 263 272 272 258 267 288 289 268 262 247 237 258 278 291 299 294 295 300 308 195 165 191 196 166 155 158 159 157 166 192
195 213 136 150 218 235 249 278 285 263 224 215 226 229 228 233 232 215 219 233 235 229 233 251 69 33 301 254 245 251 239 233 238 239 208 174 130 88 47 38 44 74 105 75 18 49 110 245 213 214 235 247 258 271 290 303 293 284 285 288 286 272 261 262 256 254 270 290 285 265 268 280 289 291 294 305 319 311 215 186 178 146 145 150 145 150 170 246
251 232 179 159 198 226 237 241 231 246 268 242 231 228 221 226 231 208 191 209 237 236 232 224 196 200 226 224 230 242 237 230 225 230 238 225 161 115 129 102 79 100 133 137 0 102 121 233 230 226 238 245 253 269 289 297 286 283 291 285 282 284 276 257 249 258 294 306 273 261 273 280 283 291 298 307 314 310 209 153 155 155 162 159 156 174 210 247
240 295 233 195 209 210 219 224 207 215 254 271 284 284 243 225 223 217 191 179 191 277 237 216 209 215 222 223 225 231 237 242 233 225 234 234 110 101 141 121 118 157 160 148 176 124 127 243 251 246 251 259 269 284 302 312 310 299 283 275 278 279 270 261 260 268 279 270 268 278 284 281 283 289 293 303 322 9 133 129 136 142 138 133 125 104 302 302
248 286 292 315 285 205 201 193 184 201 233 250 260 270 273 253 239 227 147 146 180 255 233 227 219 206 209 204 180 188 225 227 225 191 88 55 56 99 156 156 118 153 139 117 203 125 131 242 268 296 281 278 277 283 299 309 295 282 275 272 269 264 263 267 272 272 267 265 275 284 280 277 279 281 284 305 83 109 106 96 100 96 76 65 49 22 357 339
306 328 297 347 333 137 44 109 181 201 225 231 238 244 246 254 255 256 115 151 199 210 213 222 200 104 82 105 131 177 211 151 140 154 105 94 43 81 145 269 137 114 79 75 301 309 282 201 96 83 319 283 268 263 253 237 258 273 278 271 263 262 267 271 271 271 271 271 270 268 268 271 275 280 293 91 94 80 70 67 54 49 58 56 33 352 322 305
33 17 331 328 279 176 112 100 184 199 218 217 227 238 235 238 245 252 276 180 166 209 203 176 149 111 104 134 140 178 178 132 136 145 112 120 172 54 32 318 111 124 131 127 295 299 227 211 106 97 256 267 267 265 183 135 282 277 266 261 258 257 259 258 257 256 257 263 267 266 266 268 275 86 97 94 69 53 50 44 27 18 36 42 348 299 292 290
90 299 251 294 312 197 169 169 183 199 219 220 224 231 235 242 240 230 233 81 71 38 45 109 124 127 162 181 155 116 101 106 110 93 87 97 63 42 27 10 85 143 167 173 180 189 178 160 158 215 239 258 259 235 114 80 303 267 255 256 257 253 248 248 252 251 250 254 261 264 254 220 175 108 102 84 55 47 33 16 1 338 332 319 288 278 283 289